Location: Copeville
(33.0796°N, 96.4155°W)
Time: 22:26:55
(UTC+00:00)

NOAA 19 - Pass Details

Date: 10 April 2023
Orbit: 840 x 859 km, 99.1° (Epoch: 28 May)

Event Time Altitude Azimuth Distance (km) Brightness Sun altitude
Exits shadow 01:17:18 - 121° (ESE) 2,848 7.3 -6.1°
Reaches altitude 10° 01:18:34 10° 113° (ESE) 2,459 7.0 -6.3°
Maximum altitude 01:22:32 21° 66° (ENE) 1,807 6.5 -7.2°
Drops below altitude 10° 01:26:30 10° 19° (NNE) 2,463 7.6 -8.0°
Sets 01:29:23 0° 4° (N) 3,400 8.5 -8.5°
